#timestamp,LO_Frequency,Hit,StdDev 
1628524815.9,286047000.2,N
1628524835.7,286047002.4,N
1628524855.5,286047000.3,N
1628524875.4,286047000.2,N
1628524895.2,286047001.0,N
1628524915.1,286046998.5,N
1628524916.0,286046998.5,N
1628524935.8,286046998.1,N
1628524955.6,286047000.1,N
1628524975.5,286047002.3,N
1628524995.3,286046999.7,N
1628525015.1,286047001.8,N
1628525035.9,286047001.3,N
1628525055.7,286047001.6,N
1628525075.6,286047002.1,N
1628525095.4,286047002.5,N
1628525115.2,286047001.5,N
1628525135.1,286047002.5,N
1628525136.0,286047002.5,N
1628525155.8,286046999.8,N
1628525175.6,286047000.4,N
1628525195.5,286046998.8,N
1628525215.3,286046998.4,N
1628525235.2,286046999.0,N
1628525255.9,286046996.7,N
1628525275.8,286046997.3,N
1628525295.7,286046995.3,N
1628525315.5,286046995.5,N
1628525335.3,286046995.1,N
1628525355.2,286046995.2,N
1628525375.0,286046994.0,N
1628525375.9,286046994.0,N
1628525395.8,286046994.1,N
1628525415.6,286046994.4,N
1628525435.4,286046994.3,N
1628525455.3,286046991.7,N
1628525475.1,286046992.2,N
1628525495.9,286046994.6,N
1628525515.7,286046994.4,N
1628525535.5,286046994.2,N
1628525555.4,286046994.1,N
1628525575.2,286046994.0,N
1628525595.0,286046993.3,N
1628525595.9,286046993.3,N
1628525615.8,286046997.6,N
1628525635.6,286046997.0,N
1628525655.5,286046997.7,N
1628525675.3,286046995.0,N
1628525695.1,286046995.2,N
1628525715.9,286046995.4,N
1628525735.7,286046995.5,N
1628525755.5,286046996.3,N
1628525775.4,286046996.0,N
1628525795.2,286046996.4,N
1628525815.1,286046994.2,Y
1628525816.0,286046994.2,P
1628525835.8,286046998.1,P
1628525855.6,286046998.1,N
1628525875.5,286046998.8,N
1628525895.3,286046998.1,N
1628525915.2,286046998.5,N
1628525935.9,286046999.5,N
1628525955.7,286046998.8,N
1628525975.6,286047000.8,N
1628525995.4,286047001.1,N
1628526015.2,286047002.8,N
1628526035.1,286047000.5,N
1628526036.0,286047000.5,N
1628526055.8,286047000.9,N
1628526075.7,286047000.0,N
1628526095.5,286046998.8,N
1628526115.3,286047000.7,N
1628526135.2,286047001.0,N
1628526155.9,286047000.9,N
1628526175.7,286047002.2,N
1628526195.6,286047000.1,N
1628526215.4,286046999.9,N
1628526235.2,286047000.2,N
1628526255.1,286046999.9,N
1628526256.0,286046999.9,N
1628526275.8,286047000.8,N
1628526295.7,286047000.2,N
1628526315.5,286047000.6,N
1628526335.3,286046998.1,N
1628526355.2,286046999.0,N
1628526375.0,286046998.6,N
1628526375.9,286046998.6,N
1628526395.7,286046998.8,N
1628526415.6,286046998.6,N
1628526435.4,286046998.7,N
1628526455.3,286046999.3,N
1628526475.1,286046998.4,N
1628526476.0,286046998.4,N
1628526495.8,286046999.4,N
1628526515.7,286046998.8,N
1628526535.5,286046999.0,N
1628526555.4,286046996.6,Y
1628526575.2,286046998.8,P
1628526595.0,286046999.3,N
1628526595.9,286046999.3,N
1628526615.8,286046998.4,Y
1628526635.6,286047000.0,P
1628526655.4,286047002.4,P
1628526675.3,286047001.5,N
1628526695.1,286047002.6,N
1628526715.9,286047002.1,N
1628526735.7,286047002.1,N
1628526755.6,286047002.2,N
1628526775.4,286047000.8,N
1628526795.2,286047001.1,N
1628526815.1,286047000.7,N
1628526816.0,286047000.7,N
1628526835.8,286047001.0,N
1628526855.6,286046998.5,N
1628526875.5,286047001.2,N
1628526895.3,286047001.0,N
1628526915.2,286047001.1,N
1628526935.9,286047000.8,N
1628526955.7,286047000.0,N
1628526975.6,286047002.3,N
1628526995.4,286047000.5,N
1628527015.2,286047000.6,N
1628527035.1,286047002.2,N
1628527036.0,286047002.2,N
1628527055.8,286047002.8,N
1628527075.7,286047004.2,Y
1628527095.5,286047004.4,P
1628527115.3,286047004.2,N
1628527135.2,286047001.8,N
1628527155.0,286047001.8,N
1628527155.9,286047001.8,N
1628527175.8,286047002.6,N
1628527195.6,286047002.1,N
1628527215.4,286047000.1,N
1628527235.3,286047002.7,N
1628527255.1,286047000.7,N
1628527275.8,286046999.9,N
1628527295.7,286047000.6,N
1628527315.5,286047002.0,N
1628527335.4,286046999.8,N
1628527355.2,286047001.5,N
1628527375.0,286047000.0,N
1628527375.9,286047000.0,N
1628527395.8,286047000.8,N
1628527415.6,286047000.9,N
1628527435.4,286046998.1,N
1628527455.3,286047001.0,N
1628527475.1,286047001.2,N
1628527495.9,286047001.0,N
1628527515.7,286047001.2,N
1628527535.5,286046999.1,N
1628527555.4,286046996.7,N
1628527575.2,286046999.5,N
1628527595.0,286046999.2,N
1628527595.9,286046999.2,N
1628527615.8,286046999.3,N
1628527635.6,286047001.2,N
1628527655.5,286046998.6,N
1628527675.3,286046998.7,N
1628527695.1,286046998.5,N
1628527715.9,286046998.9,N
1628527735.7,286046996.5,N
1628527755.5,286046997.1,N
1628527775.4,286046996.8,N
1628527795.2,286046999.1,N
1628527815.1,286046999.2,N
1628527816.0,286046999.2,N
1628527835.8,286046999.6,N
1628527855.6,286046996.8,N
1628527875.5,286046997.4,N
1628527895.3,286046994.9,Y
1628527915.1,286046998.0,P
1628527935.9,286046997.1,P
1628527955.7,286046996.7,P
1628527975.6,286046996.7,Y
1628527995.4,286046998.3,P
1628528015.2,286047000.3,N
1628528035.1,286047000.5,N
1628528036.0,286047000.5,N
1628528055.8,286047000.1,N
1628528075.7,286046999.7,N
1628528095.5,286047002.3,N
1628528115.3,286047002.6,N
1628528135.2,286047002.5,N
1628528155.0,286047002.0,N
1628528155.9,286047002.0,N
1628528175.7,286047002.4,N
1628528195.6,286047001.8,N
1628528215.4,286047004.3,N
1628528235.3,286047003.4,N
1628528255.1,286047001.7,N
1628528256.0,286047001.7,N
1628528275.8,286047004.2,N
1628528295.7,286047004.4,N
1628528315.5,286047001.3,N
1628528335.4,286047003.5,N
1628528355.2,286047003.1,N
1628528375.0,286047002.9,N
1628528375.9,286047002.9,N
1628528395.8,286047003.0,N
